Location: Corcelles
(46.1547°N, 4.7234°E)
Time: 10:43:08
(UTC+00:00)

CZ-2D R/B - Pass Details

Date: 14 July 2020
Orbit: 792 x 845 km, 98.7° (Epoch: 05 August)

Event Time Altitude Azimuth Distance (km) Brightness Sun altitude
Rises 02:19:30 0° 6° (N) 3,346 6.4 -13.9°
Reaches altitude 10° 02:22:00 10° 358° (N) 2,418 5.4 -13.7°
Maximum altitude 02:26:48 35° 295° (WNW) 1,311 3.1 -13.2°
Enters shadow 02:30:27 16° 238° (WSW) 2,034 3.6 -12.8°
